sat.trackr.live / text

‹ back to catalog

LEMUR-2-HOTSPUR-TOM

NORAD 66786 · 2025-276EB

PAYLOAD ACTIVE UNKNOWN

§ Identity

Operator
Country
US
Launch date
2025-11-28
Launch site
AFWTR
Launch vehicle
Mass (kg)
RCS (m²)

Purposes: earth_obs

External: N2YO · Heavens-Above · Gunter

§ Orbital elements

Epoch: 2026-05-25T03:04:42.019104Z

Period
96.09 min
Inclination
97.5234°
Eccentricity
0.0014253
Mean motion
14.98623107 rev/d
Perigee alt
561.2 km
Apogee alt
581.1 km
Semi-major
6,949.3 km
B*
4.5451e-4
RAAN
216.5528°
Arg perigee
205.1909°
Mean anomaly
154.8620°
Rev number
2,667

§ Raw data

LEMUR-2-HOTSPUR-TOM1 66786U 25276EB  26145.12826411  .00005409  00000+0  45451-3 0  99972 66786  97.5234 216.5528 0014253 205.1909 154.8620 14.98623107 26673

JSON: /api/v1/satellites/66786 · /tle

For live sub-satellite position, see the globe view (requires WebGL).

§ Visibility from observer

Set your observer location to see the next 7 days of passes ≥ 10°. The values pass through the URL so the page stays shareable.

No JS? Fill the form by hand. The geolocation button needs JavaScript.